Date String (YYYY-MM-DD hh:mm:ss) UTC,Instrument flags,Ambient pressure (hPa),Sample flow (lpm),Bypass flow (lpm),Sample temperature (°C),Ambient temperature (°C),ASC tube jacket temperature (°C),LED temperature (°C),Box temperature (°C),Sample RH (%),Span deviation,Mass concentration (μg/m³),Mass concentration (μg/m³),Mass concentration (μg/m³)
DateTimeUTC,F1_M11,P_M11,Q1_M11,Q2_M11,T1_M11,T2_M11,T3_M11,T4_M11,T5_M11,U1_M11,ZSPAN_M11,X0_M11,X2_M11,X1_M11
2023-01-27 12:00:00,,0822.1,5.01,0.00,21.7,20.4,00.0,30.6,23.4,08.5,0000.0,0001.78,0000.43,0000.29
2023-01-27 12:01:00,,0822.1,5.03,0.00,21.8,21.7,00.0,30.6,23.7,08.5,0000.0,0001.78,0000.43,0000.29
2023-01-27 12:02:00,,0822.1,5.01,0.00,21.9,22.6,00.0,30.6,24.0,08.4,0000.0,0001.72,0000.42,0000.30
2023-01-27 12:03:00,,0822.1,4.99,0.00,22.0,22.6,00.0,30.7,24.1,08.3,0000.0,0001.67,0000.41,0000.29
2023-01-27 12:04:00,,0822.1,5.01,0.00,22.0,22.1,00.0,30.7,24.0,08.3,0000.0,0001.68,0000.42,0000.29
2023-01-27 12:05:00,,0822.0,5.02,0.00,22.0,21.6,00.0,30.8,23.9,08.2,0000.0,0001.56,0000.43,0000.30
2023-01-27 12:06:00,,0822.0,5.00,0.00,22.0,21.2,00.0,30.8,23.8,08.2,0000.0,0001.12,0000.44,0000.30
2023-01-27 12:07:00,,0821.8,5.00,0.00,22.0,20.8,00.0,30.8,23.7,08.4,0000.0,0001.12,0000.43,0000.30
2023-01-27 12:08:00,,0821.8,5.02,0.00,21.9,20.5,00.0,30.8,23.6,08.5,0000.0,0000.81,0000.44,0000.30
2023-01-27 12:09:00,,0821.8,5.00,0.00,21.9,20.4,00.0,30.8,23.6,08.4,0000.0,0000.79,0000.45,0000.29
2023-01-27 12:10:00,,0821.9,5.00,0.00,21.9,20.4,00.0,30.8,23.6,08.4,0000.0,0000.85,0000.47,0000.29
2023-01-27 12:11:00,,0821.8,5.01,0.00,21.9,20.4,00.0,30.8,23.6,08.5,0000.0,0000.83,0000.46,0000.29
2023-01-27 12:12:00,,0821.7,5.02,0.00,21.9,20.4,00.0,30.8,23.6,08.6,0000.0,0001.03,0000.49,0000.29
2023-01-27 12:13:00,,0821.8,5.00,0.00,21.9,20.4,00.0,30.8,23.6,08.4,0000.0,0001.16,0000.50,0000.29
2023-01-27 12:14:00,,0821.8,4.98,0.00,21.9,20.2,00.0,30.8,23.5,08.5,0000.0,0001.34,0000.51,0000.28
2023-01-27 12:15:00,,0821.8,5.02,0.00,21.8,20.0,00.0,30.8,23.4,08.5,0000.0,0001.30,0000.49,0000.28
2023-01-27 12:16:00,,0821.8,4.99,0.00,21.7,19.7,00.0,30.8,23.2,08.6,0000.0,0001.27,0000.48,0000.27
2023-01-27 12:17:00,,0821.8,5.02,0.00,21.6,19.5,00.0,30.7,23.1,08.6,0000.0,0001.18,0000.45,0000.27
2023-01-27 12:18:00,,0821.8,4.99,0.00,21.6,19.9,00.0,30.7,23.2,08.6,0000.0,0001.84,0000.46,0000.27
2023-01-27 12:19:00,,0821.8,5.01,0.00,21.7,21.1,00.0,30.6,23.5,08.6,0000.0,0001.83,0000.46,0000.27
2023-01-27 12:20:00,,0821.8,5.00,0.00,21.8,22.2,00.0,30.6,23.8,08.5,0000.0,0001.78,0000.45,0000.28
2023-01-27 12:21:00,,0821.8,4.99,0.00,21.9,22.1,00.0,30.7,23.8,08.5,0000.0,0001.71,0000.43,0000.29
2023-01-27 12:22:00,,0821.7,5.00,0.00,21.9,21.4,00.0,30.7,23.7,08.4,0000.0,0001.75,0000.44,0000.29
2023-01-27 12:23:00,,0821.7,5.01,0.00,21.8,20.9,00.0,30.7,23.5,08.5,0000.0,0001.59,0000.42,0000.29
2023-01-27 12:24:00,,0821.7,4.99,0.00,21.8,20.5,00.0,30.7,23.4,08.5,0000.0,0001.46,0000.41,0000.29
2023-01-27 12:25:00,,0821.7,5.00,0.00,21.8,20.2,00.0,30.7,23.3,08.6,0000.0,0001.25,0000.39,0000.29
2023-01-27 12:26:00,,0821.6,4.99,0.00,21.7,19.9,00.0,30.7,23.3,08.6,0000.0,0001.25,0000.39,0000.29
2023-01-27 12:27:00,,0821.6,5.00,0.00,21.6,19.8,00.0,30.7,23.2,08.6,0000.0,0001.22,0000.38,0000.30
2023-01-27 12:28:00,,0821.7,4.99,0.00,21.6,19.9,00.0,30.7,23.2,08.8,0000.0,0001.21,0000.37,0000.30
2023-01-27 12:29:00,,0821.6,5.00,0.00,21.6,19.9,00.0,30.6,23.2,08.8,0000.0,0000.61,0000.36,0000.30
2023-01-27 12:30:00,,0821.7,4.99,0.00,21.6,20.0,00.0,30.6,23.3,08.9,0000.0,0000.53,0000.36,0000.30
2023-01-27 12:31:00,,0821.6,5.00,0.00,21.6,20.0,00.0,30.6,23.3,09.1,0000.0,0000.52,0000.36,0000.30
2023-01-27 12:32:00,,0821.6,5.01,0.00,21.6,20.1,00.0,30.6,23.3,09.0,0000.0,0000.54,0000.37,0000.30
2023-01-27 12:33:00,,0821.6,4.98,0.00,21.6,20.1,00.0,30.6,23.4,09.0,0000.0,0000.51,0000.36,0000.31
2023-01-27 12:34:00,,0821.6,4.99,0.00,21.6,20.2,00.0,30.6,23.4,09.0,0000.0,0000.51,0000.37,0000.31
2023-01-27 12:35:00,,0821.6,5.00,0.00,21.6,20.2,00.0,30.6,23.4,09.2,0000.0,0000.54,0000.39,0000.31
2023-01-27 12:36:00,,0821.6,4.99,0.00,21.6,20.2,00.0,30.6,23.4,09.2,0000.0,0000.54,0000.39,0000.31
2023-01-27 12:37:00,,0821.5,5.01,0.00,21.7,20.8,00.0,30.5,23.5,09.1,0000.0,0000.57,0000.40,0000.31
2023-01-27 12:38:00,,0821.5,5.00,0.00,21.8,22.0,00.0,30.5,23.8,09.2,0000.0,0000.58,0000.41,0000.31
2023-01-27 12:39:00,,0821.5,5.00,0.00,21.9,22.1,00.0,30.6,23.9,09.0,0000.0,0000.67,0000.41,0000.31
2023-01-27 12:40:00,,0821.5,4.99,0.00,21.9,21.5,00.0,30.6,23.7,09.0,0000.0,0000.79,0000.43,0000.32
2023-01-27 12:41:00,,0821.6,5.00,0.00,21.8,20.9,00.0,30.6,23.5,09.1,0000.0,0000.80,0000.43,0000.31
2023-01-27 12:42:00,,0821.6,4.99,0.00,21.8,20.4,00.0,30.7,23.4,09.2,0000.0,0000.80,0000.42,0000.32
2023-01-27 12:43:00,,0821.6,4.99,0.00,21.7,20.0,00.0,30.6,23.2,09.2,0000.0,0000.77,0000.40,0000.31
2023-01-27 12:44:00,,0821.5,5.01,0.00,21.6,19.7,00.0,30.6,23.1,09.2,0000.0,0001.17,0000.39,0000.30
2023-01-27 12:45:00,,0821.5,4.99,0.00,21.6,19.5,00.0,30.6,23.0,09.2,0000.0,0001.73,0000.38,0000.30
2023-01-27 12:46:00,,0821.4,5.01,0.00,21.5,19.3,00.0,30.6,22.9,09.2,0000.0,0001.70,0000.36,0000.29
2023-01-27 12:47:00,,0821.4,5.03,0.00,21.4,19.2,00.0,30.5,22.9,09.2,0000.0,0001.70,0000.36,0000.28
2023-01-27 12:48:00,,0821.4,5.01,0.00,21.4,19.9,00.0,30.5,23.0,09.3,0000.0,0001.69,0000.35,0000.28
2023-01-27 12:49:00,,0821.4,4.99,0.00,21.5,21.4,00.0,30.4,23.4,09.2,0000.0,0001.70,0000.35,0000.28
2023-01-27 12:50:00,,0821.4,5.01,0.00,21.7,22.5,00.0,30.5,23.7,09.2,0000.0,0001.64,0000.36,0000.28
2023-01-27 12:51:00,,0821.4,4.99,0.00,21.8,22.4,00.0,30.5,23.8,09.1,0000.0,0001.56,0000.36,0000.27
2023-01-27 12:52:00,,0821.5,5.00,0.00,21.8,21.9,00.0,30.6,23.8,09.1,0000.0,0001.51,0000.34,0000.26
2023-01-27 12:53:00,,0821.4,5.02,0.00,21.8,21.3,00.0,30.6,23.6,09.0,0000.0,0001.49,0000.34,0000.26
2023-01-27 12:54:00,,0821.5,4.98,0.00,21.8,20.9,00.0,30.6,23.5,09.1,0000.0,0001.52,0000.35,0000.27
2023-01-27 12:55:00,,0821.5,5.00,0.00,21.8,20.4,00.0,30.6,23.4,09.1,0000.0,0001.27,0000.36,0000.26
2023-01-27 12:56:00,,0821.5,4.99,0.00,21.7,20.2,00.0,30.6,23.3,09.1,0000.0,0000.66,0000.38,0000.26
2023-01-27 12:57:00,,0821.5,5.03,0.00,21.7,20.1,00.0,30.6,23.3,09.1,0000.0,0000.68,0000.39,0000.27
2023-01-27 12:58:00,,0821.6,5.01,0.00,21.7,20.1,00.0,30.6,23.3,09.2,0000.0,0000.72,0000.39,0000.27
2023-01-27 12:59:00,,0821.6,5.00,0.00,21.7,20.1,00.0,30.6,23.4,09.4,0000.0,0000.70,0000.38,0000.27
